Back to catalog

FREGAT DEB

AliveUNKNOWN
NORAD 46619·DEBRIS·🇷🇺 Russia

Launched Jul 18, 2011 from Baikonur Cosmodrome

Loading…

Next Passes (next 24 hours)

TLE

FreshSource: Space-Track

Epoch: Sep 13, 2026, 17:03 UTC

1 46619U 11037MK  26256.71088003  .00002061  00000-0  16502-2 0  9991
2 46619  50.9824 146.5991 1063237 315.9490  36.1238 12.49290687257582

Track FREGAT DEB in real time with AllMySat

Download on the App Store